Volk, WI

11:09 AM CST on November 19, 2017 (GMT -0600)
Volk

Weather History for KVOK - April, 2014

Change the Weather History Date:

Saturday, April 12, 2014

  Actual Average Record
Temperature  
Mean Temperature 42 °F -  
Max Temperature 46 °F 52 °F 73 °F (2006)
Min Temperature 39 °F 35 °F 19 °F (2016)
Degree Days  
Heating Degree Days 22    
Moisture  
Dew Point 41 °F    
Average Humidity 92    
Maximum Humidity 100    
Minimum Humidity 65    
Precipitation  
Precipitation 1.50 in - - ()
Sea Level Pressure  
Sea Level Pressure 29.86 in    
Wind  
Wind Speed 10 mph (East)    
Max Wind Speed 28 mph    
Max Gust Speed 30 mph    
Visibility 8 miles    
Events Rain , Hail , Thunderstorm    
Averages and records for this station are not official NWS values.
T = Trace of Precipitation, MM = Missing Value Source: NWS Daily Summary

Daily Weather History Graph

Daily Weather History Graph

Search for Another Location

Airport or City:

Trip Planner

Search our weather history database for the weather conditions in past years. The results will help you decide how hot, cold, wet, or windy it might be!

Date:

Astronomy

Apr. 12, 2014 Rise Set
Actual Time 6:23 AM CDT 7:41 PM CDT
Civil Twilight 5:53 AM CDT 8:11 PM CDT
Nautical Twilight 5:17 AM CDT 8:47 PM CDT
Astronomical Twilight 4:39 AM CDT 9:25 PM CDT
Moon 5:15 PM CDT (4/12) 4:55 AM CDT (4/12)
Length of Visible Light 14h 17m
Length of Day
13h 18m
Waxing Gibbous, 93% of the Moon is Illuminated
Apr 12
Waxing Gibbous
Apr 15
Full
Apr 22
Last Quarter
Apr 29
New
May 6
First Quarter

Hourly Weather History & Observations

Time (CDT) Temp. Windchill Dew Point Humidity Pressure Visibility Wind Dir Wind Speed Gust Speed Precip Events Conditions
12:58 AM 39.0 °F 35.7 °F 36.5 °F 91% 30.01 in 10.0 mi ESE 4.6 mph - N/A   Clear
1:58 AM 42.4 °F 38.8 °F 38.3 °F 85% 30.01 in 10.0 mi ESE 5.8 mph - N/A   Partly Cloudy
2:58 AM 45.1 °F 39.9 °F 38.5 °F 77% 29.98 in 10.0 mi SE 10.4 mph - N/A   Partly Cloudy
3:58 AM 44.8 °F 41.6 °F 36.3 °F 72% 29.96 in 10.0 mi East 5.8 mph - N/A   Overcast
4:58 AM 40.1 °F 34.7 °F 35.1 °F 82% 29.94 in 10.0 mi East 8.1 mph - N/A   Partly Cloudy
5:58 AM 45.7 °F 40.6 °F 34.3 °F 65% 29.92 in 10.0 mi SE 10.4 mph - N/A   Overcast
6:58 AM 45.0 °F 42.6 °F 34.5 °F 67% 29.95 in 10.0 mi SE 4.6 mph - N/A   Scattered Clouds
7:18 AM 46.4 °F 41.5 °F 35.6 °F 66% 29.93 in 10.0 mi SE 10.4 mph - N/A Rain Light Rain
7:58 AM 44.6 °F 40.2 °F 39.2 °F 81% 29.90 in 10.0 mi ESE 8.1 mph - N/A Rain Light Rain
8:58 AM 42.8 °F 35.1 °F 41.0 °F 93% 29.85 in 10.0 mi East 16.1 mph - N/A   Overcast
9:23 AM 42.8 °F 36.2 °F 41.0 °F 93% 29.80 in 10.0 mi East 12.7 mph - N/A Rain Light Rain Showers
9:58 AM 42.8 °F 36.6 °F 41.0 °F 93% 29.86 in 10.0 mi ENE 11.5 mph - N/A Rain Light Rain Showers
10:22 AM 42.8 °F 36.6 °F 41.0 °F 93% 29.82 in 10.0 mi NE 11.5 mph - N/A Rain Light Rain Showers
10:28 AM 42.8 °F 35.8 °F 41.0 °F 93% 29.82 in 10.0 mi NE 13.8 mph - N/A Rain , Thunderstorm Light Rain Showers
10:32 AM 42.8 °F 37.5 °F 41.0 °F 93% 29.83 in 10.0 mi NNE 9.2 mph - N/A Rain , Thunderstorm Light Thunderstorms and Rain
10:41 AM 42.8 °F 34.3 °F 41.0 °F 93% 29.91 in 7.0 mi NNW 19.6 mph 25.3 mph N/A Rain , Thunderstorm Light Thunderstorms and Rain
10:47 AM 41.0 °F 32.2 °F 41.0 °F 100% 29.85 in 7.0 mi NNE 18.4 mph 27.6 mph N/A Rain , Thunderstorm Heavy Thunderstorms and Rain
10:53 AM 41.0 °F 31.9 °F 41.0 °F 100% 29.89 in 4.0 mi North 19.6 mph 27.6 mph N/A Rain , Thunderstorm Thunderstorms and Rain
10:58 AM 41.0 °F 31.1 °F 41.0 °F 100% 29.92 in 4.0 mi NNE 23.0 mph 27.6 mph N/A Rain , Thunderstorm Thunderstorms and Rain
11:13 AM 41.0 °F 31.9 °F 41.0 °F 100% 29.87 in 2.5 mi NE 19.6 mph 26.5 mph N/A Rain , Hail , Thunderstorm Thunderstorms and Rain
11:15 AM 41.0 °F 32.8 °F 41.0 °F 100% 29.85 in 3.0 mi NE 16.1 mph 26.5 mph N/A Rain , Thunderstorm Thunderstorms and Rain
11:32 AM 42.8 °F 32.7 °F 42.8 °F 100% 29.80 in 1.8 mi ESE 27.6 mph - N/A Rain , Thunderstorm Thunderstorms and Rain
11:47 AM 42.8 °F 34.8 °F 42.8 °F 100% 29.77 in 5.0 mi SE 17.3 mph 24.2 mph N/A Rain , Thunderstorm Light Thunderstorms and Rain
11:55 AM 44.6 °F 36.1 °F 44.6 °F 100% 29.80 in 3.0 mi ESE 21.9 mph 29.9 mph N/A Rain , Thunderstorm Light Thunderstorms and Rain
12:30 PM 44.6 °F 38.1 °F 44.6 °F 100% 29.79 in 2.0 mi East 13.8 mph - N/A Rain , Hail , Thunderstorm Light Thunderstorms and Rain
12:46 PM 42.8 °F 38.0 °F 42.8 °F 100% 29.80 in 7.0 mi NNE 8.1 mph - N/A Rain , Thunderstorm Light Thunderstorms and Rain
12:55 PM 42.8 °F 39.3 °F 42.8 °F 100% 29.80 in 10.0 mi Variable 5.8 mph - N/A Rain , Thunderstorm Light Thunderstorms and Rain
1:55 PM 44.6 °F 41.4 °F 44.6 °F 100% 29.80 in 10.0 mi East 5.8 mph - N/A Rain , Thunderstorm Light Thunderstorms and Rain
2:03 PM 44.6 °F 40.7 °F 44.6 °F 100% 29.78 in 10.0 mi East 6.9 mph - N/A Rain , Thunderstorm Light Rain Showers
2:46 PM 44.6 °F 40.2 °F 44.6 °F 100% 29.76 in 10.0 mi East 8.1 mph - N/A Rain , Thunderstorm Light Thunderstorms and Rain
2:55 PM 44.6 °F 40.7 °F 44.6 °F 100% 29.78 in 6.0 mi East 6.9 mph - N/A Rain , Thunderstorm Light Thunderstorms and Rain
3:10 PM 44.6 °F 42.2 °F 44.6 °F 100% 29.76 in 5.0 mi ENE 4.6 mph - N/A Rain Light Rain Showers
3:25 PM 44.6 °F 40.7 °F 44.6 °F 100% 29.78 in 5.0 mi East 6.9 mph - N/A Rain , Thunderstorm Light Rain Showers